Regional Weather Roundup
Issued by NWS

Home | Current Version | Previous Version | Text Only | Print | Product List | Glossary Off
Versions: 1 2 3 4 5 6 7 8 9 10 11 12 13 14 15 16 17 18 19 20 21 22 23 24 25 26 27 28 29 30 31 32 33 34 35 36 37 38 39 40 41 42 43 44 45 46 47 48 49 50

000
ASUS43 KOAX 051210
RWRNE

WEATHER ROUNDUP FOR NEBRASKA
NATIONAL WEATHER SERVICE OMAHA NE
700 AM CDT SUN JUL 05 2015

NOTES: SATELLITE DATA IS BEING USED TO AUGMENT CLOUD COVER ABOVE
       12000 FEET.
       "FAIR" INDICATES FEW OR NO CLOUDS BELOW 12,000 FEET WITH NO
       SIGNIFICANT WEATHER AND/OR OBSTRUCTIONS TO VISIBILITY.

  * THESE STATIONS DO NOT REPORT WEATHER SUCH AS RAIN...SNOW OR FOG.

NEZ001>004-019>022-054>056-051300-
NEBRASKA PANHANDLE

CITY           SKY/WX    TMP DP  RH WIND       PRES   REMARKS
SCOTTSBLUFF    MOCLDY    63  61  93 S3        29.87S
6HR MIN TEMP:  63; 6HR MAX TEMP:  71;

ALLIANCE       CLEAR     64  62  93 S7        29.85S
6HR MIN TEMP:  62; 6HR MAX TEMP:  74;

CHADRON        CLEAR     63  61  93 NW3       29.79F
6HR MIN TEMP:  62; 6HR MAX TEMP:  71;

KIMBALL          N/A    N/A N/A N/A MISG        N/A
SIDNEY         PTCLDY    61  59  93 S3        29.90F
6HR MIN TEMP:  59; 6HR MAX TEMP:  75;

$$

NEZ057>060-069>072-079>082-051300-
SOUTHWEST NEBRASKA

CITY           SKY/WX    TMP DP  RH WIND       PRES   REMARKS
NORTH PLATTE   PTCLDY    72  63  73 E7        29.85R
6HR MIN TEMP:  71; 6HR MAX TEMP:  76;

IMPERIAL       CLEAR     70  63  78 S10       29.86S
6HR MIN TEMP:  68; 6HR MAX TEMP:  78;

LEXINGTON      PTCLDY    71  66  85 S10       29.84S
MCCOOK         CLEAR     77  61  57 SW13      29.83F
6HR MIN TEMP:  74; 6HR MAX TEMP:  77;

OGALLALA       CLEAR     67  63  85 CALM      29.85S
$$

NEZ005>010-023>029-035>040-094-051300-
NORTH CENTRAL NEBRASKA

CITY           SKY/WX    TMP DP  RH WIND       PRES   REMARKS
VALENTINE      CLEAR     68  57  68 S5        29.79R
6HR MIN TEMP:  67; 6HR MAX TEMP:  83;

AINSWORTH      CLEAR     74  64  71 S10       29.80R
BROKEN BOW     MOCLDY    69  65  86 E9        29.85F
6HR MIN TEMP:  69; 6HR MAX TEMP:  75;

O`NEILL        PTCLDY    69  66  88 SE10      29.82S
ORD            CLOUDY    71  64  78 E6        29.85R
6HR MIN TEMP:  70; 6HR MAX TEMP:  73; 6HR PCP: TRACE;

THEDFORD       PTCLDY    72  65  81 S10       29.83F
$$

NEZ041-046>049-061>064-073>077-083>087-051300-
SOUTH CENTRAL NEBRASKA

CITY           SKY/WX    TMP DP  RH WIND       PRES   REMARKS
GRAND ISLAND   MOCLDY    71  65  81 S14G22    29.85F
6HR MIN TEMP:  70; 6HR MAX TEMP:  73;

AURORA         PTCLDY    70  67  90 S13G18    29.86S
HASTINGS       CLOUDY    71  65  81 S10       29.86F
6HR MIN TEMP:  71; 6HR MAX TEMP:  73;

HEBRON         MOCLDY    71  65  79 S12       29.88F
HOLDREGE       PTCLDY    69  64  85 S9        29.84S
KEARNEY *      CLOUDY    70  64  83 S12       29.84F
YORK           PTCLDY    70  66  88 S12       29.89R
$$

NEZ011>018-030>034-042>045-051300-
NORTHEAST NEBRASKA

CITY           SKY/WX    TMP DP  RH WIND       PRES   REMARKS
NORFOLK        CLOUDY    72  66  81 CALM      29.91R
6HR MIN TEMP:  70; 6HR MAX TEMP:  72;

ALBION         CLOUDY    70  64  79 N16       29.92R
BLAIR          MOCLDY    68  63  82 S10       29.93R
COLUMBUS *     CLOUDY    72  63  73 S10G16    29.86R
FREMONT        CLOUDY    70  64  81 SE7       29.94R
TEKAMAH        CLOUDY    67  64  90 S5        29.93R
6HR MIN TEMP:  65; 6HR MAX TEMP:  68;

WAYNE          CLOUDY    68  65  91 NW12      29.94R THUNDER
$$

NEZ050>053-065>068-078-088>093-051300-
SOUTHEAST NEBRASKA

CITY           SKY/WX    TMP DP  RH WIND       PRES   REMARKS
LINCOLN        MOCLDY    71  65  81 S10       29.91R HAZE
6HR MIN TEMP:  69; 6HR MAX TEMP:  72;

OMAHA EPPLEY   CLOUDY    70  64  81 S12       29.93R
6HR MIN TEMP:  69; 6HR MAX TEMP:  71;

BEATRICE       PTCLDY    69  65  87 S9        29.91S
FALLS CITY     PTCLDY    67  64  90 S8        29.93F FOG
6HR MIN TEMP:  64; 6HR MAX TEMP:  68;

NEBRASKA CITY  MOCLDY    67  65  91 S10       29.93S FOG
PLATTSMOUTH    MOCLDY    67  63  86 SE13      29.93R FOG
$$

NEZ044-045-051>053-067-051300-
OMAHA AREA

CITY           SKY/WX    TMP DP  RH WIND       PRES   REMARKS
OMAHA EPPLEY   CLOUDY    70  64  81 S12       29.93R
6HR MIN TEMP:  69; 6HR MAX TEMP:  71;

BLAIR          MOCLDY    68  63  82 S10       29.93R
FREMONT        CLOUDY    70  64  81 SE7       29.94R
MILLARD        CLOUDY    69  65  85 SE5       29.92R
OFFUTT AFB     MOCLDY    69  64  86 SE10      29.92R
PLATTSMOUTH    MOCLDY    67  63  86 SE13      29.93R FOG
WAHOO          FAIR      68  65  89 S5        29.93R
$$


USA.gov is the U.S. government's official web portal to all federal, state and local government web resources and services.